EN

Hourly Weather Almala

Today, 19 January, Tuesday

Time Temperature Precipitation Wind Pressure Humidity
00:00 -19°C° 0 mm 5 mps 738 mmHg 89%
01:00 -19°C° 0 mm 5 mps 738 mmHg 89%
02:00 -20°C° 0 mm 6 mps 738 mmHg 88%
03:00 -20°C° 0 mm 6 mps 737 mmHg 88%
04:00 -20°C° 0 mm 7 mps 737 mmHg 89%
05:00 -19°C° 0.3 mm 7 mps 736 mmHg 91%
06:00 -18°C° 0.3 mm 6 mps 736 mmHg 93%
07:00 -18°C° 0.3 mm 5 mps 736 mmHg 94%
08:00 -18°C° 0.3 mm 5 mps 736 mmHg 94%
09:00 -18°C° 0.3 mm 5 mps 736 mmHg 94%
10:00 -18°C° 0 mm 5 mps 736 mmHg 94%
11:00 -17°C° 0.2 mm 5 mps 736 mmHg 94%
12:00 -16°C° 0.2 mm 4 mps 736 mmHg 93%
13:00 -16°C° 0.2 mm 4 mps 736 mmHg 93%
14:00 -15°C° 0.1 mm 3 mps 736 mmHg 94%
15:00 -14°C° 0.1 mm 2 mps 736 mmHg 94%
16:00 -15°C° 0 mm 2 mps 736 mmHg 95%
17:00 -13°C° 0 mm 1 mps 737 mmHg 96%
18:00 -14°C° 0 mm 1 mps 737 mmHg 96%
19:00 -14°C° 0 mm 1 mps 737 mmHg 96%
20:00 -15°C° 0 mm 1 mps 737 mmHg 97%
21:00 -16°C° 0 mm 1 mps 738 mmHg 97%
22:00 -19°C° 0 mm 2 mps 738 mmHg 98%
23:00 -20°C° 0 mm 2 mps 738 mmHg 98%

Tomorrow, 20 January, Wednesday

Time Temperature Precipitation Wind Pressure Humidity
00:00 -21°C° 0 mm 2 mps 739 mmHg 98%
01:00 -23°C° 0 mm 2 mps 739 mmHg 98%
02:00 -23°C° 0 mm 2 mps 739 mmHg 98%
03:00 -24°C° 0 mm 2 mps 739 mmHg 98%
04:00 -25°C° 0 mm 3 mps 740 mmHg 97%
05:00 -25°C° 0 mm 3 mps 740 mmHg 97%
06:00 -24°C° 0 mm 3 mps 740 mmHg 97%
07:00 -24°C° 0 mm 3 mps 740 mmHg 97%
08:00 -24°C° 0.1 mm 3 mps 741 mmHg 97%
09:00 -23°C° 0.1 mm 3 mps 741 mmHg 96%
10:00 -23°C° 0.1 mm 3 mps 741 mmHg 96%
11:00 -23°C° 0 mm 3 mps 742 mmHg 96%
12:00 -24°C° 0 mm 4 mps 742 mmHg 96%
13:00 -24°C° 0 mm 4 mps 742 mmHg 96%
14:00 -23°C° 0 mm 3 mps 742 mmHg 96%
15:00 -22°C° 0 mm 3 mps 742 mmHg 96%
16:00 -22°C° 0 mm 3 mps 742 mmHg 96%
17:00 -22°C° 0.1 mm 3 mps 743 mmHg 96%
18:00 -20°C° 0.1 mm 2 mps 743 mmHg 96%
19:00 -21°C° 0.1 mm 2 mps 743 mmHg 97%
20:00 -23°C° 0 mm 2 mps 743 mmHg 98%
21:00 -23°C° 0 mm 2 mps 743 mmHg 98%
22:00 -25°C° 0 mm 3 mps 744 mmHg 99%
23:00 -25°C° 0 mm 2 mps 744 mmHg 99%

Day after tomorrow, 21 January, Thursday

Time Temperature Precipitation Wind Pressure Humidity
00:00 -25°C° 0 mm 2 mps 744 mmHg 99%
01:00 -26°C° 0 mm 2 mps 744 mmHg 99%
02:00 -26°C° 0 mm 2 mps 744 mmHg 99%
03:00 -27°C° 0 mm 2 mps 744 mmHg 99%
04:00 -27°C° 0 mm 2 mps 744 mmHg 99%
05:00 -25°C° 0 mm 1 mps 744 mmHg 99%
06:00 -25°C° 0 mm 1 mps 744 mmHg 99%
07:00 -27°C° 0 mm 1 mps 744 mmHg 99%
08:00 -25°C° 0 mm 1 mps 744 mmHg 99%
09:00 -25°C° 0 mm 1 mps 744 mmHg 98%
10:00 -25°C° 0 mm 1 mps 745 mmHg 98%
11:00 -24°C° 0 mm 1 mps 745 mmHg 97%
12:00 -26°C° 0 mm 2 mps 745 mmHg 97%
13:00 -25°C° 0 mm 2 mps 745 mmHg 96%
14:00 -25°C° 0 mm 2 mps 745 mmHg 96%
15:00 -25°C° 0 mm 2 mps 744 mmHg 97%
16:00 -26°C° 0 mm 2 mps 744 mmHg 97%
17:00 -26°C° 0 mm 3 mps 744 mmHg 97%
18:00 -26°C° 0 mm 3 mps 744 mmHg 97%
19:00 -26°C° 0 mm 3 mps 745 mmHg 97%
20:00 -25°C° 0 mm 3 mps 744 mmHg 97%
21:00 -26°C° 0 mm 4 mps 744 mmHg 97%
22:00 -25°C° 0 mm 4 mps 744 mmHg 97%
23:00 -25°C° 0.1 mm 4 mps 744 mmHg 97%

22 January, Friday

Time Temperature Precipitation Wind Pressure Humidity
00:00 -24°C° 0.1 mm 4 mps 744 mmHg 97%
01:00 -24°C° 0.1 mm 4 mps 744 mmHg 96%
02:00 -24°C° 0.1 mm 4 mps 744 mmHg 96%
03:00 -24°C° 0.1 mm 4 mps 744 mmHg 96%
04:00 -23°C° 0.1 mm 4 mps 743 mmHg 96%
05:00 -23°C° 0.2 mm 4 mps 743 mmHg 96%
06:00 -22°C° 0.2 mm 4 mps 743 mmHg 96%
07:00 -22°C° 0.2 mm 4 mps 743 mmHg 96%
08:00 -22°C° 0.2 mm 4 mps 743 mmHg 95%
09:00 -20°C° 0.2 mm 4 mps 743 mmHg 95%
10:00 -20°C° 0.2 mm 4 mps 743 mmHg 95%
11:00 -19°C° 0 mm 4 mps 743 mmHg 94%
12:00 -19°C° 0 mm 4 mps 743 mmHg 93%
13:00 -18°C° 0 mm 4 mps 742 mmHg 93%
14:00 -18°C° 0 mm 3 mps 743 mmHg 94%
15:00 -18°C° 0 mm 3 mps 743 mmHg 94%
16:00 -17°C° 0 mm 2 mps 743 mmHg 95%
17:00 -18°C° 0 mm 2 mps 743 mmHg 96%
18:00 -19°C° 0 mm 2 mps 743 mmHg 97%
19:00 -20°C° 0 mm 2 mps 744 mmHg 98%
20:00 -18°C° 0 mm 1 mps 744 mmHg 98%
21:00 -19°C° 0 mm 1 mps 744 mmHg 99%
22:00 -19°C° 0 mm 1 mps 744 mmHg 99%
23:00 -19°C° 0 mm 1 mps 745 mmHg 99%

23 January, Saturday

Time Temperature Precipitation Wind Pressure Humidity
00:00 -20°C° 0 mm 1 mps 745 mmHg 99%
01:00 -20°C° 0 mm 0 mps 746 mmHg 99%
02:00 -19°C° 0 mm 1 mps 746 mmHg 98%
03:00 -18°C° 0 mm 1 mps 746 mmHg 96%
04:00 -17°C° 0 mm 1 mps 746 mmHg 94%
05:00 -17°C° 0 mm 1 mps 747 mmHg 94%
06:00 -18°C° 0 mm 2 mps 747 mmHg 95%
07:00 -18°C° 0 mm 2 mps 747 mmHg 95%
08:00 -19°C° 0.1 mm 3 mps 748 mmHg 95%
09:00 -18°C° 0.1 mm 3 mps 748 mmHg 95%
10:00 -19°C° 0.1 mm 4 mps 748 mmHg 95%
11:00 -19°C° 0.1 mm 5 mps 748 mmHg 94%
12:00 -18°C° 0.1 mm 5 mps 748 mmHg 94%
13:00 -17°C° 0.1 mm 6 mps 748 mmHg 94%
14:00 -16°C° 0.2 mm 6 mps 747 mmHg 94%
15:00 -15°C° 0.2 mm 5 mps 747 mmHg 94%
16:00 -14°C° 0.2 mm 5 mps 747 mmHg 94%
17:00 -13°C° 0.2 mm 5 mps 747 mmHg 94%
18:00 -12°C° 0.2 mm 5 mps 747 mmHg 95%
19:00 -10°C° 0.2 mm 4 mps 747 mmHg 95%
20:00 -9°C° 0.4 mm 4 mps 747 mmHg 96%
21:00 -7°C° 0.4 mm 4 mps 747 mmHg 97%
22:00 -4°C° 0.4 mm 4 mps 747 mmHg 97%
23:00 -3°C° 0.1 mm 4 mps 747 mmHg 98%

24 January, Sunday

Time Temperature Precipitation Wind Pressure Humidity
00:00 -2°C° 0.1 mm 5 mps 746 mmHg 98%
01:00 -2°C° 0.1 mm 6 mps 746 mmHg 98%
02:00 -3°C° 0.1 mm 6 mps 746 mmHg 97%
03:00 -3°C° 0.1 mm 6 mps 746 mmHg 96%
04:00 -4°C° 0.1 mm 7 mps 746 mmHg 95%
05:00 -4°C° 0.2 mm 7 mps 746 mmHg 95%
06:00 -5°C° 0.2 mm 6 mps 746 mmHg 95%
07:00 -5°C° 0.2 mm 6 mps 746 mmHg 95%
08:00 -5°C° 0.1 mm 6 mps 747 mmHg 95%
09:00 -5°C° 0.1 mm 6 mps 747 mmHg 95%
10:00 -5°C° 0.1 mm 6 mps 747 mmHg 95%
11:00 -4°C° 0.1 mm 7 mps 747 mmHg 94%
12:00 -4°C° 0.1 mm 7 mps 747 mmHg 94%
13:00 -4°C° 0.1 mm 7 mps 747 mmHg 93%
14:00 -4°C° 0 mm 7 mps 747 mmHg 93%
15:00 -4°C° 0 mm 7 mps 748 mmHg 93%
16:00 -4°C° 0 mm 7 mps 748 mmHg 93%
17:00 -4°C° 0.1 mm 7 mps 748 mmHg 93%
18:00 -4°C° 0.1 mm 6 mps 748 mmHg 94%
19:00 -4°C° 0.1 mm 6 mps 748 mmHg 94%
20:00 -4°C° 0.1 mm 6 mps 748 mmHg 95%
21:00 -4°C° 0.1 mm 6 mps 749 mmHg 95%
22:00 -5°C° 0.1 mm 6 mps 749 mmHg 96%
23:00 -4°C° 0.1 mm 6 mps 749 mmHg 96%
Show more